Simultaneous Nadir Overpasses (SNOs) Predictions

Prediction of SNOs between NOAA-20 and PACE Satellite Orbit:

Table of predicted SNOs for the next 14.0 days since TLE Epoch: 5/11/2024
Index Date (NOAA-20) Time (NOAA-20) Lat,Lon (NOAA-20) SZA (NOAA-20 ) Date (PACE) Time (PACE) Lat,Lon (PACE) SZA (PACE ) Distance(km) Time Diff (sec)
1 05/13/2024 03:39:40 -80.02, -93.54 116.31 05/13/2024 03:39:57 -80.02, -93.65 116.30 2.25 17
2 05/15/2024 08:06:02 -80.02,-160.21 116.81 05/15/2024 08:06:14 -80.02,-160.18 116.82 0.75 12
3 05/17/2024 12:32:23 -80.01, 133.34 117.33 05/17/2024 12:32:30 -80.01, 133.34 117.33 0.10 7
4 05/19/2024 16:58:45 -80.03, 66.51 117.75 05/19/2024 16:58:46 -80.03, 66.63 117.76 2.24 1
5 05/21/2024 21:25:05 -80.00, 0.20 118.23 05/21/2024 21:25:00 -80.00, 0.25 118.24 0.82 5



Historial Predications of SNOs between NOAA-20 and PACE
